軌道要素
Epoch 2013 Nov. 4.0 TT = JDT 2456600.5
T 2013 Oct. 29.90696 TT MPC
q 1.3866959 (2000.0) P Q
n 0.02173375 Peri. 339.64434 +0.11164770 -0.84543345
a 12.7168528 Node 100.91811 +0.96940118 -0.02296655
e 0.8909560 Incl. 32.13451 +0.21862331 +0.53358674
P 45.3
From 804 observations 2013 Nov. 7-2014 Mar. 8, mean residual 0".6.
|